TimeCST,TemperatureF,Dew PointF,Humidity,Sea Level PressureIn,VisibilityMPH,Wind Direction,Wind SpeedMPH,Gust SpeedMPH,PrecipitationIn,Events,Conditions,WindDirDegrees,DateUTC
12:14 AM,19.4,15.8,86,29.79,10.0,Calm,Calm,-,N/A,,Overcast,0,2013-02-13 06:14:00
12:33 AM,19.4,17.6,93,29.79,10.0,WSW,3.5,-,N/A,,Overcast,250,2013-02-13 06:33:00
12:54 AM,19.4,15.8,86,29.79,10.0,Calm,Calm,-,N/A,,Mostly Cloudy,0,2013-02-13 06:54:00
1:14 AM,19.4,15.8,86,29.79,10.0,Calm,Calm,-,N/A,,Scattered Clouds,0,2013-02-13 07:14:00
1:33 AM,19.4,17.6,93,29.79,10.0,WSW,3.5,-,N/A,,Clear,250,2013-02-13 07:33:00
2:14 AM,21.2,17.6,86,29.77,10.0,WSW,4.6,-,N/A,,Overcast,240,2013-02-13 08:14:00
2:33 AM,21.2,19.4,93,29.77,10.0,West,4.6,-,N/A,,Overcast,270,2013-02-13 08:33:00
2:54 AM,24.8,19.4,80,29.77,10.0,Calm,Calm,-,N/A,,Overcast,0,2013-02-13 08:54:00
3:13 AM,24.8,19.4,80,29.76,10.0,Calm,Calm,-,N/A,,Overcast,0,2013-02-13 09:13:00
3:34 AM,24.8,19.4,80,29.76,10.0,Calm,Calm,-,N/A,,Overcast,0,2013-02-13 09:34:00
3:53 AM,24.8,19.4,80,29.75,10.0,WSW,4.6,-,N/A,,Overcast,240,2013-02-13 09:53:00
4:14 AM,26.6,21.2,80,29.75,10.0,SW,6.9,-,N/A,,Scattered Clouds,230,2013-02-13 10:14:00
4:34 AM,26.6,21.2,80,29.74,10.0,SW,5.8,-,N/A,,Mostly Cloudy,220,2013-02-13 10:34:00
4:54 AM,28.4,21.2,74,29.73,10.0,SSW,5.8,-,N/A,,Overcast,210,2013-02-13 10:54:00
5:14 AM,28.4,21.2,74,29.72,10.0,SW,4.6,-,N/A,,Overcast,220,2013-02-13 11:14:00
5:33 AM,28.4,21.2,74,29.72,10.0,WSW,5.8,-,N/A,,Overcast,240,2013-02-13 11:33:00
5:54 AM,28.4,21.2,74,29.72,10.0,WSW,3.5,-,N/A,,Scattered Clouds,250,2013-02-13 11:54:00
6:14 AM,28.4,21.2,74,29.71,10.0,WSW,6.9,-,N/A,,Scattered Clouds,240,2013-02-13 12:14:00
6:33 AM,26.6,21.2,80,29.70,10.0,WSW,5.8,-,N/A,,Clear,240,2013-02-13 12:33:00
6:54 AM,26.6,19.4,74,29.69,10.0,SW,4.6,-,N/A,,Clear,220,2013-02-13 12:54:00
7:14 AM,24.8,19.4,80,29.69,10.0,West,4.6,-,N/A,,Clear,270,2013-02-13 13:14:00
7:33 AM,24.8,19.4,80,29.69,10.0,West,5.8,-,N/A,,Clear,280,2013-02-13 13:33:00
7:54 AM,26.6,19.4,74,29.69,10.0,West,8.1,-,N/A,,Clear,280,2013-02-13 13:54:00
8:13 AM,26.6,19.4,74,29.69,10.0,West,8.1,-,N/A,,Clear,280,2013-02-13 14:13:00
8:34 AM,26.6,19.4,74,29.68,10.0,West,5.8,-,N/A,,Clear,280,2013-02-13 14:34:00
8:54 AM,26.6,19.4,74,29.68,10.0,West,5.8,-,N/A,,Clear,270,2013-02-13 14:54:00
9:14 AM,28.4,21.2,74,29.68,10.0,West,5.8,-,N/A,,Mostly Cloudy,280,2013-02-13 15:14:00
9:34 AM,28.4,21.2,74,29.67,10.0,Calm,Calm,-,N/A,,Overcast,0,2013-02-13 15:34:00
9:54 AM,28.4,21.2,74,29.66,10.0,Calm,Calm,-,N/A,,Overcast,0,2013-02-13 15:54:00
10:14 AM,30.2,21.2,69,29.66,10.0,Calm,Calm,-,N/A,,Overcast,0,2013-02-13 16:14:00
10:34 AM,30.2,21.2,69,29.67,10.0,Calm,Calm,-,N/A,,Mostly Cloudy,0,2013-02-13 16:34:00
10:54 AM,32.0,21.2,64,29.67,10.0,Calm,Calm,-,N/A,,Scattered Clouds,0,2013-02-13 16:54:00
11:14 AM,33.8,23.0,65,29.66,10.0,West,5.8,-,N/A,,Clear,260,2013-02-13 17:14:00
11:33 AM,35.6,24.8,65,29.66,10.0,West,5.8,-,N/A,,Clear,260,2013-02-13 17:33:00
11:54 AM,35.6,24.8,65,29.65,10.0,West,3.5,-,N/A,,Scattered Clouds,260,2013-02-13 17:54:00
12:13 PM,35.6,24.8,65,29.64,10.0,WSW,3.5,-,N/A,,Scattered Clouds,250,2013-02-13 18:13:00
12:34 PM,35.6,24.8,65,29.63,10.0,West,3.5,-,N/A,,Scattered Clouds,260,2013-02-13 18:34:00
12:54 PM,35.6,24.8,65,29.62,10.0,SW,3.5,-,N/A,,Mostly Cloudy,220,2013-02-13 18:54:00
1:13 PM,35.6,24.8,65,29.61,10.0,South,3.5,-,N/A,,Overcast,180,2013-02-13 19:13:00
1:34 PM,33.8,24.8,70,29.59,7.0,SE,3.5,-,N/A,Rain,Light Rain,140,2013-02-13 19:34:00
1:54 PM,33.8,26.6,75,29.58,10.0,SE,5.8,-,N/A,Rain,Light Rain,140,2013-02-13 19:54:00
2:13 PM,33.8,26.6,75,29.58,4.0,SSE,4.6,-,N/A,Snow,Light Snow,150,2013-02-13 20:13:00
2:34 PM,33.8,26.6,75,29.57,4.0,SSE,4.6,-,N/A,Rain,Rain,150,2013-02-13 20:34:00
2:54 PM,32.0,26.6,80,29.56,10.0,SSE,5.8,-,N/A,Snow,Light Snow,160,2013-02-13 20:54:00
3:14 PM,32.0,26.6,80,29.57,10.0,South,6.9,-,N/A,Snow,Light Snow,170,2013-02-13 21:14:00
3:34 PM,32.0,28.4,87,29.57,1.2,South,5.8,-,N/A,Snow,Snow,180,2013-02-13 21:34:00
3:54 PM,32.0,28.4,87,29.57,1.2,South,3.5,-,N/A,,Overcast,180,2013-02-13 21:54:00
4:14 PM,32.0,28.4,87,29.56,1.0,SSW,3.5,-,0.01,Snow,Light Snow,200,2013-02-13 22:14:00
4:34 PM,32.0,30.2,93,29.56,1.8,Calm,Calm,-,0.02,Snow,Light Snow,0,2013-02-13 22:34:00
4:54 PM,33.8,30.2,87,29.56,5.0,Calm,Calm,-,0.02,Rain,Light Rain,0,2013-02-13 22:54:00
5:14 PM,33.8,30.2,87,29.56,10.0,Calm,Calm,-,N/A,,Overcast,0,2013-02-13 23:14:00
5:34 PM,33.8,30.2,87,29.55,10.0,WNW,6.9,-,N/A,,Overcast,300,2013-02-13 23:34:00
5:53 PM,33.8,30.2,87,29.55,10.0,WNW,8.1,-,N/A,,Overcast,300,2013-02-13 23:53:00
6:14 PM,33.8,30.2,87,29.56,10.0,NW,5.8,-,N/A,,Overcast,310,2013-02-14 00:14:00
6:34 PM,33.8,30.2,87,29.56,10.0,NW,8.1,-,N/A,,Overcast,310,2013-02-14 00:34:00
6:53 PM,33.8,28.4,81,29.57,10.0,NNW,11.5,-,N/A,,Overcast,330,2013-02-14 00:53:00
7:14 PM,33.8,28.4,81,29.58,10.0,NW,10.4,-,N/A,,Overcast,320,2013-02-14 01:14:00
7:34 PM,32.0,28.4,87,29.59,10.0,NW,15.0,20.7,N/A,,Overcast,320,2013-02-14 01:34:00
7:54 PM,30.2,28.4,93,29.60,10.0,NNW,15.0,25.3,N/A,,Overcast,330,2013-02-14 01:54:00
8:14 PM,30.2,26.6,86,29.61,7.0,NNW,15.0,23.0,N/A,,Overcast,340,2013-02-14 02:14:00
8:34 PM,28.4,24.8,86,29.63,10.0,NNW,12.7,19.6,N/A,,Overcast,340,2013-02-14 02:34:00
8:53 PM,28.4,24.8,86,29.64,5.0,NNW,16.1,-,N/A,Snow,Light Snow,330,2013-02-14 02:53:00
9:14 PM,28.4,24.8,86,29.65,3.0,NNW,13.8,-,N/A,Snow,Light Snow,330,2013-02-14 03:14:00
9:34 PM,28.4,24.8,86,29.66,2.0,NW,11.5,-,N/A,Snow,Light Snow,320,2013-02-14 03:34:00
9:54 PM,28.4,24.8,86,29.67,3.0,NNW,15.0,19.6,N/A,Snow,Light Snow,330,2013-02-14 03:54:00
10:13 PM,28.4,24.8,86,29.68,4.0,NW,13.8,19.6,N/A,Snow,Light Snow,320,2013-02-14 04:13:00
10:33 PM,26.6,24.8,93,29.69,2.5,NNW,13.8,19.6,N/A,Snow,Light Snow,330,2013-02-14 04:33:00
10:54 PM,26.6,24.8,93,29.70,7.0,NW,13.8,19.6,N/A,Snow,Light Snow,320,2013-02-14 04:54:00
11:14 PM,26.6,24.8,93,29.71,5.0,NW,16.1,-,N/A,Snow,Light Snow,320,2013-02-14 05:14:00
11:33 PM,26.6,24.8,93,29.71,7.0,NW,13.8,19.6,N/A,,Overcast,320,2013-02-14 05:33:00
11:54 PM,26.6,23.0,86,29.73,7.0,NW,13.8,19.6,N/A,,Overcast,320,2013-02-14 05:54:00